Weather History for Belmar-Farmingdale, NJ

Change the Weather History Date:

Friday, January 3, 2014

  Actual Average Record
Temperature  
Mean Temperature 14 °F -  
Max Temperature 23 °F 40 °F 64 °F (2000)
Min Temperature 6 °F 27 °F 6 °F (2014)
Degree Days  
Heating Degree Days 50    
Moisture  
Dew Point 3 °F    
Average Humidity 60    
Maximum Humidity 80    
Minimum Humidity 41    
Precipitation  
Precipitation 0.02 in - - ()
Sea Level Pressure  
Sea Level Pressure 30.05 in    
Wind  
Wind Speed 17 mph (NNW)    
Max Wind Speed 29 mph    
Max Gust Speed 34 mph    
Visibility 5 miles    
Events      
Averages and records for this station are not official NWS values.
T = Trace of Precipitation, MM = Missing Value Source: NWS Daily Summary

Daily Weather History Graph

Daily Weather History Graph

Search for Another Location

Airport:

Trip Planner

Search our weather history database for the weather conditions in past years. The results will help you decide how hot, cold, wet, or windy it might be!

Date:

Astronomy

Jan. 03, 2014 Rise Set
Actual Time 7:19 AM EST 4:43 PM EST
Civil Twilight 6:48 AM EST 5:13 PM EST
Nautical Twilight 6:14 AM EST 5:47 PM EST
Astronomical Twilight 5:41 AM EST 6:20 PM EST
Moon 8:43 AM EST (1/3) 7:49 PM EST (1/3)
Length of Visible Light 10h 25m
Length of Day
9h 24m
Waxing Crescent, 8% of the Moon is Illuminated
Jan 3
Waxing Crescent
Jan 7
First Quarter
Jan 15
Full
Jan 24
Last Quarter
Jan 30
New

Hourly Weather History & Observations

Time (EST) Temp. Windchill Dew Point Humidity Pressure Visibility Wind Dir Wind Speed Gust Speed Precip Events Conditions
12:15 AM 23.0 °F 10.6 °F 15.8 °F 74% 29.60 in 0.5 mi NNE 13.8 mph 24.2 mph 0.01 in   Overcast
12:35 AM 21.2 °F 6.8 °F 15.8 °F 80% 29.58 in 0.5 mi NNE 17.3 mph 21.9 mph 0.01 in   Overcast
12:55 AM 21.2 °F 7.3 °F 15.8 °F 80% 29.59 in 0.5 mi North 16.1 mph 21.9 mph 0.01 in   Overcast
1:15 AM 19.4 °F 5.0 °F 14.0 °F 80% 29.57 in 0.8 mi NNE 16.1 mph 24.2 mph N/A   Overcast
1:35 AM 19.4 °F 6.6 °F 12.2 °F 74% 29.57 in 0.5 mi North 12.7 mph 21.9 mph 0.01 in   Overcast
1:55 AM 19.4 °F 5.0 °F 12.2 °F 74% 29.58 in 0.5 mi North 16.1 mph 25.3 mph 0.01 in   Overcast
2:15 AM 17.6 °F 1.7 °F 10.4 °F 73% 29.61 in 0.5 mi North 18.4 mph 26.5 mph N/A   Overcast
2:35 AM 15.8 °F -1.1 °F 8.6 °F 73% 29.60 in 0.2 mi NNW 19.6 mph - N/A   Overcast
2:55 AM 14.0 °F -3.0 °F 6.8 °F 73% 29.61 in 0.5 mi NNW 18.4 mph 26.5 mph N/A   Overcast
3:15 AM 14.0 °F -2.5 °F 6.8 °F 73% 29.62 in 0.8 mi NNW 17.3 mph 24.2 mph N/A   Overcast
3:35 AM 14.0 °F -4.3 °F 6.8 °F 73% 29.64 in 0.8 mi NNW 21.9 mph 29.9 mph N/A   Overcast
3:55 AM 12.2 °F -6.7 °F 6.8 °F 79% 29.65 in 0.8 mi NNW 21.9 mph 32.2 mph N/A   Overcast
4:15 AM 12.2 °F -4.8 °F 5.0 °F 73% 29.67 in 0.5 mi NNW 17.3 mph 26.5 mph N/A   Overcast
4:35 AM 12.2 °F -5.8 °F 6.8 °F 79% 29.69 in 0.5 mi NNW 19.6 mph 28.8 mph N/A   Overcast
4:55 AM 12.2 °F -6.3 °F 6.8 °F 79% 29.70 in 0.5 mi North 20.7 mph 27.6 mph N/A   Overcast
5:15 AM 12.2 °F -6.7 °F 6.8 °F 79% 29.71 in 0.5 mi NNW 21.9 mph 28.8 mph N/A   Overcast
5:35 AM 14.0 °F -3.0 °F 6.8 °F 73% 29.72 in 0.8 mi North 18.4 mph 27.6 mph N/A   Overcast
5:55 AM 14.0 °F -2.5 °F 6.8 °F 73% 29.75 in 1.0 mi North 17.3 mph 27.6 mph N/A   Overcast
6:15 AM 15.8 °F -1.5 °F 8.6 °F 73% 29.77 in 1.5 mi North 20.7 mph 27.6 mph N/A   Overcast
6:35 AM 15.8 °F 0.3 °F 8.6 °F 73% 29.78 in 1.0 mi North 16.1 mph 25.3 mph N/A   Overcast
6:55 AM 15.8 °F -0.6 °F 8.6 °F 73% 29.81 in 0.8 mi NNW 18.4 mph 28.8 mph N/A   Overcast
7:15 AM 15.8 °F -0.2 °F 10.4 °F 79% 29.82 in 1.2 mi NNW 17.3 mph 23.0 mph N/A   Overcast
7:35 AM 17.6 °F 1.7 °F 10.4 °F 73% 29.84 in 1.2 mi NNW 18.4 mph 26.5 mph N/A   Overcast
7:55 AM 17.6 °F 2.2 °F 10.4 °F 73% 29.87 in 1.8 mi NNW 17.3 mph 23.0 mph N/A   Overcast
8:15 AM 17.6 °F 3.7 °F 10.4 °F 73% 29.89 in 1.2 mi NW 13.8 mph - N/A   Overcast
8:35 AM 17.6 °F 3.2 °F 8.6 °F 68% 29.90 in 0.8 mi NNW 15.0 mph 28.8 mph N/A   Overcast
8:55 AM 15.8 °F 0.3 °F 8.6 °F 73% 29.93 in 1.2 mi NW 16.1 mph 25.3 mph N/A   Overcast
9:15 AM 15.8 °F -2.7 °F 8.6 °F 73% 29.94 in 1.0 mi NNW 24.2 mph 32.2 mph N/A   Overcast
9:35 AM 15.8 °F -2.3 °F 6.8 °F 68% 29.97 in 0.8 mi NNW 23.0 mph 33.4 mph N/A   Overcast
9:55 AM 15.8 °F -2.3 °F 6.8 °F 68% 29.98 in 1.0 mi NNW 23.0 mph 28.8 mph N/A   Overcast
10:15 AM 15.8 °F -1.9 °F 6.8 °F 68% 30.00 in 2.0 mi NNW 21.9 mph 31.1 mph N/A   Overcast
10:35 AM 15.8 °F -2.7 °F 6.8 °F 68% 30.01 in 1.5 mi NW 24.2 mph 28.8 mph N/A   Overcast
10:55 AM 17.6 °F 1.7 °F 8.6 °F 68% 30.03 in 3.0 mi NW 18.4 mph - N/A   Mostly Cloudy
11:15 AM 17.6 °F -0.3 °F 6.8 °F 63% 30.03 in 1.8 mi NW 24.2 mph 31.1 mph N/A   Scattered Clouds
11:35 AM 17.6 °F 1.3 °F 6.8 °F 63% 30.04 in 4.0 mi NW 19.6 mph 31.1 mph N/A   Scattered Clouds
11:55 AM 17.6 °F 1.3 °F 5.0 °F 58% 30.06 in 2.0 mi WNW 19.6 mph 26.5 mph N/A   Scattered Clouds
12:15 PM 17.6 °F 0.1 °F 3.2 °F 53% 30.07 in 5.0 mi WNW 23.0 mph 31.1 mph N/A   Clear
12:35 PM 17.6 °F 1.7 °F 3.2 °F 53% 30.07 in 4.0 mi WNW 18.4 mph 28.8 mph N/A   Clear
12:55 PM 17.6 °F 1.3 °F 3.2 °F 53% 30.08 in 4.0 mi NW 19.6 mph 29.9 mph N/A   Clear
1:15 PM 17.6 °F 0.9 °F 3.2 °F 53% 30.11 in 3.0 mi NW 20.7 mph 31.1 mph N/A   Clear
1:35 PM 17.6 °F 0.1 °F 3.2 °F 53% 30.12 in 5.0 mi NW 23.0 mph 31.1 mph N/A   Clear
1:55 PM 17.6 °F -1.6 °F 3.2 °F 53% 30.13 in 3.0 mi NW 28.8 mph 34.5 mph N/A   Clear
2:15 PM 17.6 °F 0.5 °F 3.2 °F 53% 30.14 in 5.0 mi NNW 21.9 mph 31.1 mph N/A   Clear
2:35 PM 17.6 °F 2.2 °F 1.4 °F 49% 30.16 in 9.0 mi NW 17.3 mph 26.5 mph N/A   Clear
2:55 PM 17.6 °F 2.2 °F 1.4 °F 49% 30.18 in 10.0 mi NW 17.3 mph 26.5 mph N/A   Clear
3:15 PM 17.6 °F 0.9 °F -0.4 °F 45% 30.19 in 10.0 mi NW 20.7 mph 26.5 mph N/A   Clear
3:35 PM 17.6 °F 1.7 °F 1.4 °F 49% 30.21 in 10.0 mi NW 18.4 mph 24.2 mph N/A   Clear
3:55 PM 17.6 °F 1.3 °F -0.4 °F 45% 30.23 in 8.0 mi NNW 19.6 mph 28.8 mph N/A   Clear
4:15 PM 15.8 °F 0.9 °F -2.2 °F 45% 30.24 in 10.0 mi NNW 15.0 mph 20.7 mph N/A   Clear
4:35 PM 15.8 °F 2.1 °F -2.2 °F 45% 30.26 in 10.0 mi NNW 12.7 mph - N/A   Clear
4:55 PM 15.8 °F 3.4 °F -2.2 °F 45% 30.28 in 10.0 mi WNW 10.4 mph 16.1 mph N/A   Clear
5:15 PM 15.8 °F 3.4 °F -4.0 °F 41% 30.31 in 10.0 mi NW 10.4 mph - N/A   Clear
5:35 PM 14.0 °F 0.5 °F -4.0 °F 45% 30.32 in 10.0 mi NW 11.5 mph 19.6 mph N/A   Clear
5:55 PM 14.0 °F -1.4 °F -5.8 °F 41% 30.34 in 10.0 mi NW 15.0 mph - N/A   Clear
6:15 PM 12.2 °F -2.5 °F -5.8 °F 45% 30.35 in 10.0 mi NW 12.7 mph - N/A   Clear
6:35 PM 12.2 °F -4.3 °F -5.8 °F 45% 30.35 in 10.0 mi NW 16.1 mph 19.6 mph N/A   Clear
6:55 PM 12.2 °F -2.5 °F -5.8 °F 45% 30.38 in 10.0 mi NW 12.7 mph 21.9 mph N/A   Clear
7:15 PM 12.2 °F -3.7 °F -7.6 °F 41% 30.40 in 10.0 mi NW 15.0 mph 21.9 mph N/A   Clear
7:35 PM 12.2 °F -1.0 °F -7.6 °F 41% 30.42 in 10.0 mi NW 10.4 mph - N/A   Clear
7:55 PM 12.2 °F -3.7 °F -7.6 °F 41% 30.42 in 10.0 mi NW 15.0 mph - N/A   Clear
8:15 PM 10.4 °F -6.0 °F -7.6 °F 44% 30.43 in 10.0 mi NW 15.0 mph 19.6 mph N/A   Clear
8:35 PM 10.4 °F -2.4 °F -7.6 °F 44% 30.44 in 10.0 mi NNW 9.2 mph - N/A   Clear
8:55 PM 10.4 °F 0.8 °F -7.6 °F 44% 30.45 in 10.0 mi NW 5.8 mph - N/A   Clear
9:15 PM 8.6 °F -2.6 °F -7.6 °F 48% 30.44 in 10.0 mi NW 6.9 mph - N/A   Clear
9:35 PM 8.6 °F -1.3 °F -7.6 °F 48% 30.45 in 10.0 mi NW 5.8 mph - N/A   Clear
9:55 PM 6.8 °F -4.8 °F -9.4 °F 48% 30.45 in 10.0 mi NW 6.9 mph - N/A   Clear
10:15 PM 8.6 °F -2.6 °F -7.6 °F 48% 30.45 in 10.0 mi NW 6.9 mph - N/A   Clear
10:35 PM 6.8 °F -5.9 °F -7.6 °F 52% 30.45 in 10.0 mi NW 8.1 mph - N/A   Clear
10:55 PM 6.8 °F -4.8 °F -9.4 °F 48% 30.45 in 10.0 mi NNW 6.9 mph - N/A   Clear
11:15 PM 6.8 °F -6.9 °F -7.6 °F 52% 30.45 in 10.0 mi NW 9.2 mph - N/A   Clear
11:35 PM 6.8 °F -4.8 °F -7.6 °F 52% 30.46 in 10.0 mi WNW 6.9 mph - N/A   Clear
11:55 PM 6.8 °F -2.0 °F -7.6 °F 52% 30.46 in 10.0 mi WNW 4.6 mph - N/A   Clear